Location: Heisede
(52.2582°N, 9.8523°E)
Time: 14:54:45
(UTC+00:00)

GRACE-FO 2 - Pass Details

Date: 13 January 2026
Orbit: 447 x 461 km, 89.0° (Epoch: 16 February)

Event Time Altitude Azimuth Distance (km) Brightness Sun altitude
Rises 06:31:29 0° 181° (S) 2,449 8.5 -7.8°
Reaches altitude 10° 06:33:31 10° 183° (S) 1,584 7.5 -7.6°
Maximum altitude 06:36:57 78° 269° (W) 470 4.4 -7.1°
Drops below altitude 10° 06:40:26 10° 358° (N) 1,608 6.9 -6.6°
Sets 06:42:31 0° 360° (N) 2,490 7.9 -6.3°
